Regional Weather Roundup
Issued by NWS Green Bay, WI

Home | Current Version | Previous Version | Text Only | Print | Product List | Glossary On
Versions: 1 2 3 4 5 6 7 8 9 10 11 12 13 14 15 16 17 18 19 20 21 22 23 24 25 26 27 28 29 30 31 32 33 34 35 36 37 38 39 40 41 42 43 44 45 46 47 48 49 50
000
ASUS43 KGRB 271259
RWRGRB

NORTH-CENTRAL AND NORTHEAST WISCONSIN REGIONAL WEATHER ROUNDUP
NATIONAL WEATHER SERVICE GREEN BAY WI
700 AM CST THU NOV 27 2014

WIZ005-009-010>012-018-019-271400-
NORTH CENTRAL WISCONSIN

CITY           SKY/WX    TMP DP  RH WIND       PRES   REMARKS
IRONWOOD       MOCLDY    10   7  85 N6        30.31R WCI   1
MANITOWISH WTR NOT AVBL
ARBOR VITAE    NOT AVBL
EAGLE RIVER    NOT AVBL
LAND O LAKES   NOT AVBL
RHINELANDER    PTCLDY     3   0  87 NW5       30.27S WCI  -6
PHILLIPS       NOT AVBL
ANTIGO         NOT AVBL
TOMAHAWK       NOT AVBL
MERRILL        NOT AVBL
$$

WIZ013-073-271400-
NORTHEAST WISCONSIN

CITY           SKY/WX    TMP DP  RH WIND       PRES   REMARKS
IRON MOUNTAIN  PTCLDY     5   0  79 NW6       30.27R WCI  -6
MARINETTE      CLOUDY    16   7  67 N12       30.29R WCI   3
$$

WIZ017-030-035>037-045-271400-
CENTRAL WISCONSIN

CITY           SKY/WX    TMP DP  RH WIND       PRES   REMARKS
MEDFORD        NOT AVBL
WAUSAU         CLOUDY    10   5  80 NW9       30.30R WCI  -3
MOSINEE        NOT AVBL
MARSHFIELD     CLOUDY    10   3  73 NW14      30.32R WCI  -6
WISC RAPIDS    LGT SNOW  13   6  74 NW13      30.34R WCI  -2
STEVENS POINT  NOT AVBL
WAUPACA        NOT AVBL
SHAWANO        NOT AVBL
CLINTONVILLE   NOT AVBL
$$

WIZ038-039-048-051-271400-
FOX VALLEY

CITY           SKY/WX    TMP DP  RH WIND       PRES   REMARKS
NWS GREEN BAY  CLOUDY    19  12  74 N13       30.29R WCI   6
APPLETON       MOCLDY    18  16  93 NW8       30.28R WCI   7
OSHKOSH        CLOUDY    20  14  77 MISG      30.28R
FOND DU LAC    CLOUDY    20  15  81 NW14      30.28R WCI   7
$$

WIZ022-050-052-271400-
EAST CENTRAL WISCONSIN

CITY           SKY/WX    TMP DP  RH WIND       PRES   REMARKS
STURGEON BAY   CLOUDY    18  10  73 N20       30.27R WCI   1
MANITOWOC      CLOUDY    19  18  93 N13       30.26R WCI   7
SHEBOYGAN      CLOUDY    22  18  85 NW9       30.25R
$$

LMZ563-521-522-541>543-271400-
LAKESHORE

STATION/POSITION TIME  TEMP    WIND        PRES    VSBY  WAVE
                       AIR SEA DIR/SP/G                  HT/PER
                 (UTC) (F)     (DEG/KT/KT) (MB)    (MI)  (FT/S)
SHEBOYGAN LKSHOR 1200   24 35  320/ 12/ 14 1025.3R
KEWAUNEE LKSHORE 1200   21     330/ 10/ 15 1023.4R
NORTHPORT PIER   1200   21     330/ 22/ 28 1024.7R
N MID LAKE BUOY  1200   25 42  340/ 23/ 29 1023.6R         5/ 6
SISTER BAY LKSHO 1200          350/ 24/ 31   N/A
CHAMBERS ISLAND  1200   19     320/ 17/ 25 1025.1R
MENOMINEE LKSHOR 1200   18     310/ 13/ 18 1025.7R
$$



USA.gov is the U.S. government's official web portal to all federal, state and local government web resources and services.